94P/Russell 4 (2003)

Japanese version
Home page
Updated on July 4, 2010

---------------------------------------------------------------------

* Profile

* Orbital Elements

Epoch 2003 Aug. 29.0 TT = JDT 2452880.5  
T 2003 Aug. 29.23185 TT                                 Muraoka 
q   2.2311477            (2000.0)            P               Q
n   0.14970413     Peri.   92.94105     -0.95518368     -0.27794791
a   3.5127469      Node    70.93801     +0.21021282     -0.87911631
e   0.3648424      Incl.    6.18485     +0.20840997     -0.38716854
P   6.58
From 139 observations 1984-1997, mean residual 0".75.

* Finding Charts

* Magnitudes Graph

        H = 14.5  G = 0.15             [    ,-200]  (             - 2003 Feb. 10)
        m1 = 3.0 + 5 log d + 35 log r  [-200, 200]  (2003 Feb. 10 - 2004 Mar. 16)
        H = 14.5  G = 0.15             [ 200,    ]  (2004 Mar. 16 -             )

---------------------------------------------------------------------

The orbital elements are calculated by Kenji Muraoka.
The charts are made with StellaNavigator Ver.2.0 for Windows (AstroArts / ASCII).
The magnitudes graphs are made with Comet for Windows.

---------------------------------------------------------------------

Copyright(C) Seiichi Yoshida (comet@aerith.net). All rights reserved.